Regional Weather Roundup
Issued by NWS

Home | Current Version | Previous Version | Graphics & Text | Print | Product List | Glossary On
Versions: 1 2 3 4 5 6 7 8 9 10 11 12 13 14 15 16 17 18 19 20 21 22 23 24 25 26 27 28 29 30 31 32 33 34 35 36 37 38 39 40 41 42 43 44 45 46 47 48 49 50
000
ASUS43 KMKX 251300
RWRWI

WISCONSIN REGIONAL WEATHER ROUNDUP
NATIONAL WEATHER SERVICE MILWAUKEE/SULLIVAN WI
800 AM CDT SAT APR 25 2015

NOTE: "FAIR" INDICATES FEW OR NO CLOUDS BELOW 12,000 FEET WITH NO
SIGNIFICANT WEATHER AND/OR OBSTRUCTIONS TO VISIBILITY.

WIZ001-002-006>008-014>016-023>028-251400-
NORTHWEST WISCONSIN

CITY           SKY/WX    TMP DP  RH WIND       PRES   REMARKS
SUPERIOR ARPT  CLOUDY    35  31  83 NE18G26   29.96F WCI  24
ASHLAND        CLOUDY    37  31  78 N12       29.97S WCI  29
HAYWARD        MOSUNNY   41  28  60 NE10      29.92S
SIREN          MOSUNNY   42  32  66 E8        29.89R
CUMBERLAND     SUNNY     39  30  70 E9        29.87S WCI  33
RICE LAKE      SUNNY     42  27  57 E14G21    29.89S
CHETEK         SUNNY     40  30  65 E8        29.89R
LADYSMITH      CLOUDY    40  24  52 E7        29.92S
EAU CLAIRE     NOT AVBL
MENOMONIE      CLOUDY    42  30  62 E15       29.86F
NEW RICHMOND   MOSUNNY   41  33  72 E12G17    29.85R
OSCEOLA        CLOUDY    43  34  71 E12       29.90R
$$

WIZ003>005-009-010-017-018-251400-
NORTH CENTRAL WISCONSIN

CITY           SKY/WX    TMP DP  RH WIND       PRES   REMARKS
MANITOWISH WTR CLOUDY    37  19  48 E6        29.94R WCI  33
ARBOR VITAE    PTSUNNY   39  18  43 E8        29.94R WCI  34
WOODRUFF       PTSUNNY   39  18  43 E8        29.94R WCI  34
RHINELANDER    MOSUNNY   37  17  44 E13       29.94S WCI  29
EAGLE RIVER    MOSUNNY   37  18  45 E7        29.94S WCI  32
LAND O LAKES   SUNNY     37  18  46 E5        29.96R WCI  34
PHILLIPS       MOSUNNY   39  18  43 E9        29.92R WCI  33
TOMAHAWK       MOSUNNY   38  18  44 CALM      29.93S
MEDFORD        CLOUDY    37  22  53 E10       29.89S WCI  30
MERRILL        CLOUDY    38  17  42 E5        29.92R WCI  35
$$

WIZ029-030-035-036-043>047-251400-
CENTRAL WISCONSIN

CITY           SKY/WX    TMP DP  RH WIND       PRES   REMARKS
WAUSAU         CLOUDY    38  19  46 E9        29.90S WCI  31
MOSINEE        CLOUDY    37  21  52 E9        29.91S WCI  31
MARSHFIELD     CLOUDY    39  25  57 E13       29.89R WCI  31
STEVENS POINT  CLOUDY    37  24  59 NE12      29.91S WCI  29
WAUPACA        CLOUDY    40  27  58 NE7       29.93S
WAUTOMA        NOT AVBL
WISC RAPIDS    CLOUDY    39  26  59 E12       29.90S WCI  32
CAMP DOUGLAS   NOT AVBL
$$

WIZ011>013-019>022-031-037>040-048>050-251400-
NORTHEAST WISCONSIN

CITY           SKY/WX    TMP DP  RH WIND       PRES   REMARKS
ANTIGO         CLOUDY    35  18  50 E9        29.92S WCI  28
SHAWANO        CLOUDY    39  26  59 NE12      29.95R WCI  32
OCONTO         CLOUDY    38  26  61 NE7       29.95F WCI  33
STURGEON BAY   CLOUDY    37  21  52 E10       29.98S WCI  30
GREEN BAY      CLOUDY    41  26  55 E12       29.95R
MANITOWOC      NOT AVBL
APPLETON       CLOUDY    39  21  48 NE12G18   29.92R WCI  32
CLINTONVILLE   CLOUDY    37  23  56 E9        29.94R WCI  31
OSHKOSH        CLOUDY    40  30  67 NE12G21   29.90S WCI  33
$$

WIZ032>034-041-042-053>061-251400-
SOUTHWEST WISCONSIN

CITY           SKY/WX    TMP DP  RH WIND       PRES   REMARKS
LA CROSSE      CLOUDY    42  36  79 NE7       29.83S
SPARTA         CLOUDY    39  35  83 E10G17    29.86S WCI  32
VIROQUA        CLOUDY    38  37  93 E15       29.80F WCI  30
BOSCOBEL       CLOUDY    43  35  73 NE10G18   29.81S
PRAIRIE DU CHI CLOUDY    42  34  72 NE15      29.77F
PLATTEVILLE    CLOUDY    42  37  82 NE13      29.77R
$$

WIZ056-057-062-063-064-067-068-251400-
SOUTH CENTRAL WISCONSIN

CITY           SKY/WX    TMP DP  RH WIND       PRES   REMARKS
REEDSBURG      CLOUDY    38  35  87 E9        29.84F WCI  32
BARABOO/DELLS  CLOUDY    38  34  85 E10       29.85S WCI  31
LONE ROCK      NOT AVBL
MINERAL POINT  PTSUNNY   41  36  81 NE16      29.78R
MADISON        CLOUDY    41  35  79 E14       29.84R
MIDDLETON      CLOUDY    42  36  79 NE12      29.83S
WATERTOWN      CLOUDY    40  38  93 E13       29.84F WCI  33
MONROE         CLOUDY    41  37  87 NE10G21   29.77S
JANESVILLE     CLOUDY    45  37  76 E16       29.78
$$

WIZ051-052-058>065-066-070>072-251400-
SOUTHEAST WISCONSIN

CITY           SKY/WX    TMP DP  RH WIND       PRES   REMARKS
MILWAUKEE      CLOUDY    40  35  83 NE13      29.87S WCI  32
WAUKESHA       CLOUDY    39  34  81 E12       29.86S WCI  32
MILWAUKEE/TIMM CLOUDY    39  34  81 NE9       29.89R WCI  33
RACINE         CLOUDY    41  36  82 E12       29.86F
BURLINGTON     CLOUDY    41  36  82 E12G18    29.82F
KENOSHA        CLOUDY    42  38  85 E13       29.83F
FOND DU LAC    CLOUDY    41  33  73 NE12      29.90R
SHEBOYGAN      CLOUDY    39  29  67 NE16      29.90S WCI  30
WEST BEND      CLOUDY    37  32  81 E8        29.89R WCI  31
JUNEAU         CLOUDY    40  34  81 NE12      29.87S WCI  32
$$

LSZ147-162-251400-
LAKE SUPERIOR

STATION/POSITION TIME  TEMP    WIND        PRES    WAVE
                       AIR SEA DIR/SP/G            HT/PER
                 (UTC) (F)     (DEG/KT/KT) (MB)    (FT/S)
W MID LAKE BUOY  1150   34 34   60/ 16/ 17 1018.0R   3/ 4
DEVILS ISLAND    1200   35      70/ 20/ 22 1016.8R
PORT WING        1240   36      40/ 18/ 20 1015.2R
SAXON HARBOR     1240   38      40/  3/  6 1014.9R
$$

LMZ867-665-643>646-251400-
LAKE MICHIGAN

STATION/POSITION TIME  TEMP    WIND        PRES    WAVE
                       AIR SEA DIR/SP/G            HT/PER
                 (UTC) (F)     (DEG/KT/KT) (MB)    (FT/S)
CHAMBERS ISLAND  1200   36      30/ 11/ 13 1015.6R
NORTHPORT PIER   1200   35      70/  9/ 14 1015.9R
SISTER BAY       1217   38      40/  4/ 10   N/A
KEWAUNEE LAKESHO 1200   37      50/ 12/ 15 1013.3R
SHEBOYGAN LAKESH 1200   38      30/ 13/ 14 1013.6R
PORT WASHINGTON  1240   42      40/ 13/ 17 1012.9R
MILWAUKEE LAKESH 1200   39      40/  9/ 12   N/A
KENOSHA   LAKESH 1200   41      70/ 11/ 14 1010.8R
$$

TC  - TEMPERATURE IN CELSIUS
VSB - VISIBILITY IN STATUTE MILES
WCI - WIND CHILL INDEX
HX  - HEAT INDEX



USA.gov is the U.S. government's official web portal to all federal, state and local government web resources and services.